Location: Flensburg
(54.6357°N, 9.5142°E)
Time: 12:01:25
(UTC+02:00)

ISS - Visible Passes

Search period start: 13 May 2021 00:00
Search period end: 23 May 2021 00:00
Orbit: 417 x 422 km, 51.6° (Epoch: 13 May)

Date Brightness Start Highest point End Pass type
(mag) Time Alt. Az. Time Alt. Az. Time Alt. Az.
13 May -1.3 00:32:07 11° E 00:32:07 11° E 00:32:20 10° E visible
13 May -3.6 02:05:02 39° SW 02:05:50 50° S 02:09:07 10° E visible
13 May -3.2 03:39:11 10° W 03:42:22 38° SSW 03:45:32 10° SE visible
14 May -3.5 01:18:38 46° SSE 01:18:38 46° SSE 01:21:44 10° E visible
14 May -3.5 02:51:46 10° W 02:55:01 44° S 02:58:15 10° ESE visible
14 May -2.3 04:28:48 10° WSW 04:31:19 19° SSW 04:33:50 10° SSE visible
14 May -2.2 22:52:38 10° S 22:54:51 17° SSE 22:55:36 16° SE visible
15 May -3.4 00:27:53 10° WSW 00:31:06 41° SSE 00:34:18 10° E visible
15 May -3.6 02:04:21 10° W 02:07:38 49° S 02:10:56 10° ESE visible
15 May -2.7 03:41:13 10° W 03:44:03 25° SSW 03:46:53 10° SSE visible
15 May -1.8 22:06:13 10° SSE 22:07:39 12° SE 22:09:04 10° ESE visible
15 May -3.2 23:40:40 10° SW 23:43:45 34° SSE 23:46:52 10° E visible
16 May -3.7 01:16:58 10° WSW 01:20:15 51° S 01:23:34 10° ESE visible
16 May -3.0 02:53:42 10° W 02:56:44 31° SSW 02:59:47 10° SE visible
16 May -2.8 22:53:30 10° SW 22:56:26 28° SSE 22:59:23 10° E visible
17 May -3.6 00:29:36 10° WSW 00:32:52 50° S 00:36:10 10° E visible
17 May -3.3 02:06:15 10° W 02:09:24 38° SSW 02:12:34 10° SE visible
17 May -2.0 03:43:39 10° WSW 03:45:35 15° SW 03:47:32 10° S visible
17 May -3.5 23:42:15 10° WSW 23:45:29 47° S 23:48:45 10° E visible
18 May -3.5 01:18:48 10° W 01:22:03 44° SSW 01:22:56 35° SSE visible
18 May -3.3 22:54:56 10° WSW 22:58:08 41° SSE 23:01:20 10° E visible
19 May -3.6 00:31:23 10° W 00:34:40 49° S 00:36:31 22° ESE visible
19 May -1.9 02:08:14 10° W 02:09:26 17° WSW 02:09:26 17° WSW visible
19 May -3.6 23:43:59 10° WSW 23:47:17 51° S 23:50:21 11° ESE visible
20 May -2.8 01:20:44 10° W 01:23:16 30° SW 01:23:16 30° SW visible
20 May -3.6 22:56:36 10° WSW 22:59:53 50° S 23:03:11 10° E visible
21 May -3.2 00:33:15 10° W 00:36:25 38° SSW 00:37:12 32° SSE visible
21 May -3.4 23:45:49 10° W 23:49:03 44° SSW 23:51:10 19° SE visible
22 May -1.8 01:22:52 10° WSW 01:24:06 16° WSW 01:24:06 16° WSW visible
22 May -3.5 22:58:24 10° W 23:01:40 49° S 23:04:57 10° ESE visible
